Regional Weather Roundup
Issued by NWS Albany, NY

Home | Current Version | Previous Version | Text Only | Print | Product List | Glossary On
Versions: 1 2 3 4 5 6 7 8 9 10 11 12 13 14 15 16 17 18 19 20 21 22 23 24 25 26 27 28 29 30 31 32 33 34 35 36 37 38 39 40 41 42 43 44 45 46 47 48 49 50
000
ASUS41 KALY 201910
RWRALY

NEW YORK STATE HOURLY WEATHER ROUNDUP
NATIONAL WEATHER SERVICE ALBANY NY
300 PM EDT SAT SEP 20 2014

NOTE: "FAIR" INDICATES FEW OR NO CLOUDS BELOW 12,000 FEET WITH NO
SIGNIFICANT WEATHER AND/OR NO OBSTRUCTIONS TO VISIBILITY.

NYZ032-033-038>043-046>054-057>066-NYZ062>081-202000-
EAST


CITY           SKY/WX    TMP DP  RH WIND       PRES   REMARKS
ALBANY         PTSUNNY   73  55  53 S18G25    30.09F
GLENS FALLS    CLOUDY    67  57  70 W3        30.08F
POUGHKEEPSIE   CLOUDY    73  56  54 S8        30.14F
NEWBURGH       PTSUNNY   73  57  56 SW7G17    30.17F
MONTGOMERY     CLOUDY    73  56  54 S10       30.14F
WHITE PLAINS   PTSUNNY   70  55  59 S10G17    30.19F
ISLIP          MOSUNNY   72  58  61 S17       30.19F
NEW YORK CITY  PTSUNNY   72  57  59 S18G25    30.18F
CENTRAL PARK   MOSUNNY   72  57  59 MISG      30.21F
$$

NYZ005>009-017-018-044>046-055-056-202000-
CENTRAL


CITY           SKY/WX    TMP DP  RH WIND       PRES   REMARKS
FULTON         PTSUNNY   72  59  63 S16G28    29.97F
SYRACUSE       PTSUNNY   75  59  57 S18       29.98F
ROME           PTSUNNY   71  58  63 S20G25    30.04F
ELMIRA         PTSUNNY   72  61  68 S13G21    30.04F
BINGHAMTON     CLOUDY    65  56  72 SW15G21   30.10F
MONTICELLO     CLOUDY    66  55  68 S10       30.18F
$$

NYZ026>034-041>043-202000-
NORTH


CITY           SKY/WX    TMP DP  RH WIND       PRES   REMARKS
WATERTOWN      MOSUNNY   75  57  53 SW16G28   29.93F
FORT DRUM      NOT AVBL
MASSENA        PTSUNNY   74  60  61 SW21G29   29.91F
SARANAC LAKE   CLOUDY    63  55  75 SW16G25   30.00F
PLATTSBURGH    PTSUNNY   65  54  67 S20G29    29.98F
$$

NYZ001>004-010>016-019>021-202000-
WEST


CITY           SKY/WX    TMP DP  RH WIND       PRES   REMARKS
NIAGARA FALLS  PTSUNNY   76  59  55 SW31G41   29.89F
BUFFALO        PTSUNNY   76  58  53 SW20G32   29.91F
DUNKIRK        MOSUNNY   75  58  55 S18G29    29.94F
JAMESTOWN      PTSUNNY   52 N/A N/A S17G23    30.00F
WELLSVILLE     PTSUNNY   71  57  61 S16G22    30.05F
ROCHESTER      PTSUNNY   79  58  48 SW17G28   29.93F
PENN YAN       PTSUNNY   73  59  61 S14G24    30.00F
$$

             KEY
       WCI = WIND CHILL INDEX
       VSB = VISIBILITY
       HX  = HEAT INDEX
$$



USA.gov is the U.S. government's official web portal to all federal, state and local government web resources and services.